Location: Kosice
(48.7167°N, 21.2500°E)
Time: 00:07:08
(UTC+01:00)

ISS - Pass Details

Date: 28 January 2021
Orbit: 417 x 422 km, 51.6° (Epoch: 06 March)

Event Time Altitude Azimuth Distance (km) Brightness Sun altitude
Rises 17:12:23 0° 269° (W) 2,371 1.8 -7.8°
Reaches altitude 10° 17:14:31 10° 274° (W) 1,508 0.3 -8.1°
Maximum altitude 17:17:50 52° 352° (N) 530 -3.3 -8.6°
Enters shadow 17:20:45 13° 69° (ENE) 1,346 -1.9 -9.1°
